DECAYED

CZ-2D DEB, 38298 (Decayed)

Orbit data source: Space-Track

CZ-2D DEB, 38298 was space debris in SSO originally from a launch on Tue, 15 Jun 2010 UTC launched from the Jiuquan Satellite Launch Center, China (JSC). Debris objects in space refer to the collection of defunct objects orbiting the Earth. Examples of debris include non-operational satellites, rocket bodies, and fragments generated from explosions, collisions, or faulty payload assembly.

Not visible in the next 10 days
Identifier
38298, 2010-027C
Orbit
Decayed
Country
Flag of CNCN / PRC
Related business
Manufacturer
Unknown
Mission
Decayed spacecraft
Bus & Motor
Unknown
Mass
Unknown
Launch date (UTC)
2010-06-15 (16 years ago)
Launch vehicle
Unknown
Launch site
Jiuquan Satellite Launch Center, China (JSC)
Object type
Payload
Rocket body
Debris
Shape & HBR
Unknown shape, 0.1 m
Radar Cross Section
Small (<0.1 m²)

Expand to show TLE details & history
Last TLE update: 6 months ago

TLE from 6 months ago
0 CZ-2D DEB
1 38298U 10027C   25295.31900642  .02987589  11150-1  60305-2 0  9991
2 38298  97.7652  66.8818 0027437 311.0537  48.8370 16.01667105814420
Epoch: 2025-10-22T07:39Z
TLE epoch observation values (Epoch: 2025-10-22T07:39:22.154Z)
Latitude
-0.00004°
Longitude
-78.95483°
Altitude
261.011 km
Speed
7.757 km/s
True Right ascension
04h 27m 31s
True Declination
0° 00' 00"
Sunlit
Object was in full shadow at epoch
Visualization orbit readout
Latitude
Unknown
Longitude
Unknown
Altitude
Unknown
Speed
Unknown
Apparent Right ascension
Unknown
Apparent Declination
Unknown
Sunlit
N/A
Visualization observer readout
Local Sidereal Time
23:37:48
Azimuth
Unknown
Elevation
Unknown
Doppler factor
Unknown
Orbital elements
Apogee altitude
284.907 km
Perigee altitude
248.444 km
Semi-major axis
6,644.813 km
Eccentricity
0.00274
Inclination
97.7652°
RAAN
66.8818°
Arg. of periapsis
311.0537°
True anomaly
49.07423°
Mean anomaly
48.837°
Eccentric anomaly
48.95556°
Mean motion
4.007 °/min
Orbital period
89.84 mins
BSTAR
0.0060305
Loading maneuver chart data...
Computing Atmospheric mass density...
Loading historical data...
Loading historical data...
Loading historical data...
Loading historical data...
Loading historical data...
Loading historical data...
Loading historical data...

Documentation

Showing up to 5 results
|